Regional Weather Roundup
Issued by NWS

Home | Current Version | Previous Version | Graphics & Text | Print | Product List | Glossary On
Versions: 1 2 3 4 5 6 7 8 9 10 11 12 13 14 15 16 17 18 19 20 21 22 23 24 25 26 27 28 29 30 31 32 33 34 35 36 37 38 39 40 41 42 43 44 45 46 47 48 49 50
000
ASUS43 KDMX 061303
RWRIA

WEATHER ROUNDUP FOR IOWA
NATIONAL WEATHER SERVICE DES MOINES IA
700 AM CST SAT FEB 06 2016

NOTE: "FAIR" INDICATES FEW OR NO CLOUDS BELOW 12,000 FEET WITH NO
SIGNIFICANT WEATHER AND/OR OBSTRUCTIONS TO VISIBILITY.

* - THESE STATIONS ARE NOT NWS STATIONS...THUS NOT UNDER NWS
QUALITY CONTROL.  THEY ALSO DO NOT REPORT WEATHER SUCH
AS PRECIPITATION OR FOG.

IAZ001>003-012>014-020>022-031>034-043>046-061400-
   NORTHWEST IOWA

CITY           SKY/WX    TMP DP  RH WIND       PRES   REMARKS
CARROLL *      FOG       27  27 100 W9        30.22S VSB 1   WCI  17
CHEROKEE *     FOG       25  25 100 SW7       30.19F VSB 1/2 WCI  17
DENISON *      FOG       28  28 100 W8        30.21R VSB 1/2 WCI  20
LE MARS *      CLOUDY    19  19 100 S6        30.20S WCI  11
ORANGE CITY *  SNOW      19  18  93 CALM      30.16F VSB 1/4
SHELDON *      FOG       21  21 100 S7        30.15S VSB 1/2 WCI  13
SIOUX CITY     CLOUDY    14  10  84 E6        30.21S FOG     WCI   5
SPENCER        FOG       26  22  84 SW12      30.16F VSB 1/4 WCI  16
STORM LAKE *   FOG       25  25 100 MISG      30.19S VSB 0
$$

IAZ055>058-069>071-079>083-090>094-061400-
   SOUTHWEST IOWA

CITY           SKY/WX    TMP DP  RH WIND       PRES   REMARKS
ATLANTIC *     CLOUDY    28  28 100 W8        30.24S FOG     WCI  20
AUDUBON *      CLOUDY    27  25  93 CALM      30.22F FOG
CLARINDA *     CLOUDY    28  28 100 NW3       30.28S
COUNCIL BLFS * CLOUDY    28  28 100 CALM      30.24S
CRESTON *      FOG       28  28 100 NW10      30.25R VSB 0   WCI  19
HARLAN  *      CLOUDY    28  28 100 W7        30.27S FOG     WCI  21
LAMONI         CLEAR     24  21  88 W5        30.25R WCI  18
RED OAK *      CLOUDY    30  30 100 CALM      30.25F FOG
SHENANDOAH *   MOCLDY    32  32 100 CALM      30.27S
$$

IAZ047>049-059>061-072>074-084-061400-
   CENTRAL IOWA

CITY           SKY/WX    TMP DP  RH WIND       PRES   REMARKS
AMES           CLOUDY    30  27  88 W9        30.23S FOG     WCI  22
ANKENY *       CLOUDY    30  30 100 W5        30.24F FOG     WCI  25
BOONE *        CLOUDY    30  28  93 W7        30.21F WCI  23
CHARITON *     CLOUDY    25  23  93 SW5       30.24S WCI  19
DES MOINES     CLOUDY    28  24  85 SW3       30.24S
GRINNELL*      CLOUDY    28  27  93 CALM      30.24R
KNOXVILLE *    PTCLDY    23  19  86 S6        30.23S WCI  16
MARSHALLTOWN   CLOUDY    30  28  92 W8        30.22S FOG     WCI  22
NEWTON *       CLOUDY    28  28 100 CALM      30.23S
PELLA *        CLOUDY    27  23  85 CALM      30.26S
$$

IAZ004>006-015-016-023>025-035-036-061400-
   NORTH CENTRAL IOWA

CITY           SKY/WX    TMP DP  RH WIND       PRES   REMARKS
ALGONA *       FOG       27  27 100 SW8       30.18F VSB 3/4 WCI  18
CLARION *      CLOUDY    27  27 100 W12       30.20F WCI  16
ESTHERVILLE    FOG       24  24 100 SW12      30.15F VSB 3/4 WCI  13
FORT DODGE *   CLOUDY    27  23  86 SW7       30.22R WCI  19
MASON CITY     CLOUDY    25  24  96 SW12      30.19F FOG     WCI  14
FOREST CITY *  CLOUDY    25  25 100 SW7       30.18S FOG     WCI  17
WEBSTER CITY * CLOUDY    27  27 100 W9        30.19F FOG     WCI  17
IOWA FALLS *   CLOUDY    30  28  93 W9        30.21S FOG     WCI  22
$$

IAZ007>011-017>019-026>030-037>042-050>054-066-061400-
   NORTHEAST IOWA

CITY           SKY/WX    TMP DP  RH WIND       PRES   REMARKS
CEDAR RAPIDS   CLOUDY    28  25  88 SW5       30.24R WCI  23
CHARLES CITY * CLOUDY    27  27 100 W13       30.19F FOG     WCI  16
CLINTON *      CLOUDY    29  25  85 CALM      30.26S
DECORAH *      CLOUDY    27  27 100 SW8       30.17S FOG     WCI  18
DUBUQUE        CLOUDY    27  24  89 SW6       30.21F WCI  20
MONTICELLO *   CLOUDY    30  27  86 SW6       30.23S WCI  24
OELWEIN *      CLOUDY    28  28 100 W8        30.20F FOG     WCI  20
WATERLOO       CLOUDY    29  27  92 W8        30.21F WCI  21
$$

IAZ064-065-067-068-078-061400-
   EAST CENTRAL IOWA

CITY           SKY/WX    TMP DP  RH WIND       PRES   REMARKS
DAVENPORT      CLEAR     27  21  78 SW7       30.26S WCI  19
IOWA CITY      CLEAR     24  21  88 CALM      30.27S
MT. PLEASANT * CLEAR     26  22  85 S3        30.27R
MUSCATINE *    CLEAR     25  21  86 CALM      30.28R
QUAD CITIES    CLEAR     28  21  75 CALM      30.26S
$$

IAZ062-063-075>077-085>089-095>099-061400-
   SOUTHEAST IOWA

CITY           SKY/WX    TMP DP  RH WIND       PRES   REMARKS
BURLINGTON     CLEAR     23  22  96 S3        30.27R
FAIRFIELD *    CLEAR     25  19  80 S5        30.26R WCI  19
FORT MADISON * CLEAR     25  21  86 S3        30.28R
KEOKUK *       CLEAR     27  21  80 CALM      30.27R
OSKALOOSA *      N/A     25  21  86 SW5       30.26R WCI  19
OTTUMWA        CLEAR     22  19  89 SW5       30.26R WCI  16
WASHINGTON *   CLEAR     23  19  86 S3        30.27R
$$

ABBREVIATIONS USED IN REMARKS
   TC - TEMPERATURES IN CELSIUS
  WCI - WIND CHILL INDEX
   HX - HEAT INDEX
  VSB - VISIBILITY
$$




USA.gov is the U.S. government's official web portal to all federal, state and local government web resources and services.